When you browse on this site, cookies collect data to enhance your experience and personalize the content and advertising you see.
Visit our Privacy Policy to learn more. By continuing to use the site, you agree to this use of cookies and data.
  • In Österreich
  • Länderverzeichnis
  • Für 7 Tage
  • Wassertemperatur
  • Satellitenkarten
  • Wetterkarte
  • News
  • Widgets
  • user-avatar
    Anmelden

    Stündliche Wetter Stamford

    Heute, 22 April, Montag

    Zeit Temperatur Niederschläge Wind Luftdruck Luftfeuchtigkeit
    00:00 +12°C° 0 mm 1 m/S 763 mmHg 75%
    01:00 +12°C° 0 mm 1 m/S 763 mmHg 77%
    02:00 +12°C° 0 mm 2 m/S 762 mmHg 79%
    03:00 +12°C° 0 mm 2 m/S 762 mmHg 80%
    04:00 +13°C° 0 mm 2 m/S 762 mmHg 82%
    05:00 +13°C° 0 mm 2 m/S 762 mmHg 83%
    06:00 +14°C° 0 mm 2 m/S 762 mmHg 84%
    07:00 +13°C° 0 mm 3 m/S 762 mmHg 84%
    08:00 +13°C° 0.2 mm 3 m/S 762 mmHg 83%
    09:00 +14°C° 0.2 mm 4 m/S 761 mmHg 81%
    10:00 +14°C° 0.2 mm 5 m/S 761 mmHg 80%
    11:00 +15°C° 1.8 mm 4 m/S 761 mmHg 82%
    12:00 +15°C° 1.8 mm 4 m/S 761 mmHg 83%
    13:00 +16°C° 1.8 mm 3 m/S 760 mmHg 84%
    14:00 +16°C° 2.9 mm 3 m/S 760 mmHg 86%
    15:00 +16°C° 2.9 mm 3 m/S 760 mmHg 88%
    16:00 +16°C° 2.9 mm 3 m/S 760 mmHg 90%
    17:00 +14°C° 2.2 mm 3 m/S 760 mmHg 90%
    18:00 +14°C° 2.2 mm 3 m/S 760 mmHg 90%
    19:00 +14°C° 2.2 mm 4 m/S 760 mmHg 91%
    20:00 +14°C° 0.9 mm 4 m/S 760 mmHg 89%
    21:00 +14°C° 0.9 mm 5 m/S 760 mmHg 88%
    22:00 +14°C° 0.9 mm 5 m/S 761 mmHg 87%
    23:00 +13°C° 0 mm 4 m/S 761 mmHg 88%

    Morgen, 23 April, Dienstag

    Zeit Temperatur Niederschläge Wind Luftdruck Luftfeuchtigkeit
    00:00 +13°C° 0 mm 4 m/S 761 mmHg 89%
    01:00 +13°C° 0 mm 3 m/S 761 mmHg 90%
    02:00 +12°C° 0 mm 3 m/S 761 mmHg 89%
    03:00 +12°C° 0 mm 3 m/S 761 mmHg 88%
    04:00 +12°C° 0 mm 3 m/S 761 mmHg 87%
    05:00 +14°C° 0 mm 2 m/S 761 mmHg 85%
    06:00 +14°C° 0 mm 2 m/S 761 mmHg 82%
    07:00 +15°C° 0 mm 2 m/S 761 mmHg 80%
    08:00 +17°C° 0 mm 2 m/S 761 mmHg 73%
    09:00 +20°C° 0 mm 1 m/S 761 mmHg 65%
    10:00 +22°C° 0 mm 1 m/S 761 mmHg 57%
    11:00 +23°C° 0 mm 1 m/S 760 mmHg 53%
    12:00 +24°C° 0 mm 1 m/S 760 mmHg 50%
    13:00 +24°C° 0 mm 2 m/S 759 mmHg 46%
    14:00 +24°C° 0 mm 3 m/S 759 mmHg 46%
    15:00 +24°C° 0 mm 3 m/S 758 mmHg 46%
    16:00 +23°C° 0 mm 4 m/S 757 mmHg 46%
    17:00 +21°C° 0 mm 4 m/S 757 mmHg 53%
    18:00 +19°C° 0 mm 5 m/S 757 mmHg 61%
    19:00 +16°C° 0 mm 5 m/S 757 mmHg 68%
    20:00 +16°C° 0.2 mm 5 m/S 756 mmHg 71%
    21:00 +15°C° 0.2 mm 5 m/S 756 mmHg 74%
    22:00 +15°C° 0.2 mm 5 m/S 756 mmHg 77%
    23:00 +15°C° 0 mm 4 m/S 755 mmHg 76%

    übermorgen, 24 April, Mittwoch

    Zeit Temperatur Niederschläge Wind Luftdruck Luftfeuchtigkeit
    00:00 +15°C° 0 mm 4 m/S 755 mmHg 76%
    01:00 +15°C° 0 mm 4 m/S 754 mmHg 75%
    02:00 +15°C° 0 mm 4 m/S 754 mmHg 78%
    03:00 +16°C° 0 mm 3 m/S 753 mmHg 81%
    04:00 +16°C° 0 mm 3 m/S 753 mmHg 84%
    05:00 +14°C° 0 mm 4 m/S 754 mmHg 76%
    06:00 +13°C° 0 mm 5 m/S 754 mmHg 67%
    07:00 +11°C° 0 mm 6 m/S 754 mmHg 59%
    08:00 +13°C° 0 mm 6 m/S 754 mmHg 55%
    09:00 +14°C° 0 mm 6 m/S 755 mmHg 51%
    10:00 +15°C° 0 mm 5 m/S 755 mmHg 47%
    11:00 +16°C° 0 mm 6 m/S 755 mmHg 44%
    12:00 +17°C° 0 mm 6 m/S 755 mmHg 42%
    13:00 +19°C° 0 mm 6 m/S 755 mmHg 40%
    14:00 +19°C° 0 mm 6 m/S 755 mmHg 40%
    15:00 +19°C° 0 mm 5 m/S 754 mmHg 40%
    16:00 +19°C° 0 mm 5 m/S 754 mmHg 40%
    17:00 +17°C° 0 mm 5 m/S 755 mmHg 45%
    18:00 +17°C° 0 mm 4 m/S 755 mmHg 49%
    19:00 +15°C° 0 mm 4 m/S 756 mmHg 54%
    20:00 +13°C° 0 mm 3 m/S 756 mmHg 57%
    21:00 +12°C° 0 mm 3 m/S 757 mmHg 59%
    22:00 +11°C° 0 mm 3 m/S 758 mmHg 62%
    23:00 +11°C° 0 mm 3 m/S 758 mmHg 63%

    25 April, Donnerstag

    Zeit Temperatur Niederschläge Wind Luftdruck Luftfeuchtigkeit
    00:00 +10°C° 0 mm 3 m/S 758 mmHg 64%
    01:00 +10°C° 0 mm 2 m/S 758 mmHg 65%
    02:00 +9°C° 0 mm 2 m/S 758 mmHg 66%
    03:00 +9°C° 0 mm 2 m/S 758 mmHg 68%
    04:00 +9°C° 0 mm 1 m/S 758 mmHg 69%
    05:00 +10°C° 0 mm 1 m/S 759 mmHg 66%
    06:00 +11°C° 0 mm 1 m/S 759 mmHg 63%
    07:00 +12°C° 0 mm 1 m/S 759 mmHg 60%
    08:00 +14°C° 0 mm 1 m/S 759 mmHg 53%
    09:00 +16°C° 0 mm 1 m/S 759 mmHg 45%
    10:00 +18°C° 0 mm 2 m/S 759 mmHg 38%
    11:00 +19°C° 0 mm 2 m/S 759 mmHg 34%
    12:00 +20°C° 0 mm 2 m/S 758 mmHg 30%
    13:00 +23°C° 0 mm 2 m/S 758 mmHg 26%
    14:00 +23°C° 0 mm 2 m/S 758 mmHg 27%
    15:00 +22°C° 0 mm 3 m/S 757 mmHg 27%
    16:00 +22°C° 0 mm 3 m/S 757 mmHg 28%
    17:00 +20°C° 0 mm 3 m/S 757 mmHg 34%
    18:00 +19°C° 0 mm 4 m/S 757 mmHg 40%
    19:00 +17°C° 0 mm 4 m/S 757 mmHg 47%
    20:00 +16°C° 0 mm 3 m/S 757 mmHg 50%
    21:00 +16°C° 0 mm 3 m/S 757 mmHg 53%
    22:00 +14°C° 0 mm 3 m/S 757 mmHg 56%
    23:00 +14°C° 0 mm 3 m/S 757 mmHg 57%

    26 April, Freitag

    Zeit Temperatur Niederschläge Wind Luftdruck Luftfeuchtigkeit
    00:00 +14°C° 0 mm 3 m/S 756 mmHg 59%
    01:00 +14°C° 0 mm 3 m/S 756 mmHg 61%
    02:00 +14°C° 0.4 mm 3 m/S 755 mmHg 67%
    03:00 +13°C° 0.4 mm 3 m/S 754 mmHg 74%
    04:00 +13°C° 0.4 mm 3 m/S 753 mmHg 80%
    05:00 +13°C° 1.4 mm 4 m/S 753 mmHg 82%
    06:00 +13°C° 1.4 mm 4 m/S 752 mmHg 84%
    07:00 +13°C° 1.4 mm 4 m/S 751 mmHg 87%
    08:00 +14°C° 1.4 mm 4 m/S 750 mmHg 87%
    09:00 +15°C° 1.4 mm 4 m/S 749 mmHg 88%
    10:00 +17°C° 1.4 mm 4 m/S 748 mmHg 89%
    11:00 +16°C° 0.7 mm 5 m/S 747 mmHg 87%
    12:00 +17°C° 0.7 mm 5 m/S 747 mmHg 86%
    13:00 +17°C° 0.7 mm 6 m/S 746 mmHg 85%
    14:00 +17°C° 0.3 mm 6 m/S 746 mmHg 78%
    15:00 +16°C° 0.3 mm 7 m/S 747 mmHg 72%
    16:00 +16°C° 0.3 mm 8 m/S 748 mmHg 66%
    17:00 +15°C° 0 mm 7 m/S 749 mmHg 64%
    18:00 +14°C° 0 mm 7 m/S 750 mmHg 63%
    19:00 +14°C° 0 mm 6 m/S 751 mmHg 61%
    20:00 +13°C° 0 mm 6 m/S 752 mmHg 58%
    21:00 +11°C° 0 mm 7 m/S 753 mmHg 55%
    22:00 +10°C° 0 mm 7 m/S 754 mmHg 52%
    23:00 +9°C° 0 mm 7 m/S 754 mmHg 49%

    27 April, Samstag

    Zeit Temperatur Niederschläge Wind Luftdruck Luftfeuchtigkeit
    00:00 +8°C° 0 mm 7 m/S 755 mmHg 46%
    01:00 +8°C° 0 mm 7 m/S 755 mmHg 43%
    02:00 +6°C° 0 mm 7 m/S 756 mmHg 47%
    03:00 +6°C° 0 mm 7 m/S 757 mmHg 52%
    04:00 +6°C° 0 mm 7 m/S 757 mmHg 56%
    05:00 +6°C° 0 mm 7 m/S 758 mmHg 53%
    06:00 +6°C° 0 mm 7 m/S 758 mmHg 51%
    07:00 +8°C° 0 mm 7 m/S 759 mmHg 48%
    08:00 +9°C° 0 mm 7 m/S 759 mmHg 41%
    09:00 +10°C° 0 mm 7 m/S 760 mmHg 34%
    10:00 +12°C° 0 mm 7 m/S 760 mmHg 27%
    11:00 +14°C° 0 mm 7 m/S 760 mmHg 26%
    12:00 +14°C° 0 mm 7 m/S 760 mmHg 25%
    13:00 +15°C° 0 mm 6 m/S 760 mmHg 24%
    14:00 +16°C° 0 mm 6 m/S 760 mmHg 25%
    15:00 +16°C° 0 mm 5 m/S 760 mmHg 25%
    16:00 +16°C° 0 mm 5 m/S 760 mmHg 26%
    17:00 +15°C° 0 mm 4 m/S 760 mmHg 30%
    18:00 +14°C° 0 mm 3 m/S 761 mmHg 34%
    19:00 +13°C° 0 mm 3 m/S 761 mmHg 38%
    20:00 +14°C° 0 mm 2 m/S 762 mmHg 40%
    21:00 +14°C° 0 mm 1 m/S 762 mmHg 41%
    22:00 +12°C° 0 mm 0 m/S 763 mmHg 42%
    23:00 +13°C° 0 mm 1 m/S 762 mmHg 43%
    Mehr zeigen